Probability
0 1 2 1 0 0 0 0 0 0 0 0 0 0 0 0 0 0 0 0 0 0 0 0 0 0 0 0 0 0 0 0 0 0 0 0 0 0 0 0 0 0 0
1 2 3 2 0 0 0 0 0 0 0 0 0 0 0 0 0 0 0 0 0 0 0 0 0 0 0 0 0 0 0 0 0 0 0 0 0 0 0 0 0 0 0
3 2 3 2 1 1 1 3 4 3 1 0 0 0 0 0 0 0 0 0 0 0 0 0 0 0 0 0 0 0 0 0 0 0 0 0 0 0 0 0 0 0 0
2 2 3 4 4 4 6 9 11 9 4 1 0 0 0 0 0 0 0 0 0 0 0 0 0 0 0 0 0 0 0 0 0 0 0 0 0 0 0 0 0 0 0
1 1 4 8 9 10 12 16 19 16 9 3 1 0 0 0 0 0 0 0 0 0 0 0 0 0 0 0 0 0 0 0 0 0 0 0 0 0 0 0 0 0 0
0 1 5 12 15 13 15 20 23 20 13 7 3 1 1 1 1 0 0 0 0 0 0 0 0 0 0 0 0 0 0 0 0 0 0 0 0 0 0 0 0 0 0
0 0 4 12 15 12 13 18 22 19 15 11 6 3 3 3 2 1 1 0 0 0 0 0 0 0 0 0 0 0 0 0 0 0 0 0 0 0 0 0 0 0 0
0 0 3 7 9 9 10 13 16 15 13 10 7 5 4 3 2 2 2 1 0 0 1 1 2 2 0 0 0 0 0 0 0 0 0 0 0 0 0 0 0 0 0
0 0 1 2 3 5 7 8 9 10 10 9 7 5 4 3 2 1 2 1 1 1 3 5 6 5 3 2 1 1 0 0 0 0 0 0 0 0 0 0 0 0 0
1 1 1 0 0 1 3 4 5 7 9 8 6 3 3 3 2 1 2 2 3 4 7 10 11 10 8 6 3 2 2 1 0 0 0 0 3 4 3 1 0 0 0
7 6 3 2 1 0 0 1 3 6 9 9 6 4 4 5 5 4 4 4 6 11 15 16 16 16 16 14 9 6 5 3 1 0 0 2 10 18 17 10 6 3 2
24 19 14 9 5 2 1 1 2 6 10 12 11 9 9 13 13 12 10 7 9 17 23 25 25 25 26 24 16 9 7 5 3 1 1 4 18 35 40 29 19 13 9
46 40 33 26 18 12 8 6 7 11 16 20 21 21 24 26 25 21 15 9 11 17 25 30 31 31 30 27 19 12 9 7 5 2 2 7 23 43 53 46 34 27 23
61 56 50 43 32 24 20 19 17 19 23 28 31 33 38 39 31 23 17 11 11 14 18 23 24 24 22 19 15 11 8 7 4 1 1 7 20 36 47 47 40 34 34
66 62 56 48 37 29 29 31 29 28 30 32 32 32 37 37 28 20 14 10 10 10 11 12 11 9 9 9 8 6 5 4 2 0 0 4 11 21 30 35 33 30 31
55 52 46 39 32 29 31 33 34 35 32 28 24 22 24 23 18 13 9 7 6 7 7 6 4 2 2 2 3 2 1 1 0 0 0 1 4 9 15 20 23 23 21
32 30 27 23 22 22 23 26 30 30 24 18 14 14 15 14 11 8 5 4 3 3 3 3 2 2 1 1 1 1 0 0 0 0 0 0 1 3 7 12 16 18 18
13 12 11 10 10 9 10 15 18 17 13 9 7 8 12 12 8 5 4 2 1 0 1 1 1 1 1 0 0 0 0 0 0 0 0 0 0 1 3 7 10 14 16
5 5 5 5 3 2 2 5 7 6 5 4 3 4 8 9 7 3 2 1 0 0 0 0 0 0 0 0 0 0 0 0 0 0 0 0 0 0 1 3 5 8 10
1 2 2 2 1 0 0 0 1 1 1 1 1 2 4 6 5 2 0 0 0 0 0 0 0 0 0 0 0 0 0 0 0 0 0 0 0 0 0 2 3 4 5
0 0 0 0 0 0 0 0 0 0 0 0 0 0 1 3 3 1 0 0 0 0 0 0 0 0 0 0 0 0 0 0 0 0 0 0 0 0 0 1 2 3 3
0 0 0 0 0 0 0 0 0 0 0 0 0 0 0 1 1 0 0 0 0 0 0 0 0 0 0 0 0 0 0 0 0 0 0 0 0 0 0 0 1 2 1
0 0 0 0 0 0 0 0 0 0 0 0 0 0 0 0 0 0 0 0 0 0 0 0 0 0 0 0 0 0 0 0 0 0 0 0 0 0 0 0 0 0 0
0 0 0 0 0 0 0 0 0 0 0 0 0 0 0 0 0 0 0 0 0 0 0 0 0 0 0 0 0 0 0 0 0 0 0 0 0 0 0 0 0 0 0
0 0 0 0 0 0 0 0 0 0 0 0 0 0 0 0 0 0 0 0 0 0 0 0 0 0 0 0 0 0 0 0 0 0 0 0 0 0 0 0 0 0 0
0 0 0 0 0 0 0 0 0 0 0 0 0 0 0 0 0 0 0 0 0 0 0 0 0 0 0 0 0 0 0 0 0 0 0 0 0 0 0 0 0 0 0
Wind_Speed
9 9 15 16 16 16 16 15 15 15 14 14 15 15 16 16 16 15 15 14 14 13 12 11 10 10 10 11 12 13 14 14 14 15 15 15 13 13 14 15 15 11 17
13 12 16 15 15 15 15 15 15 14 14 14 14 14 14 14 14 13 13 12 12 11 11 10 10 10 10 10 11 12 12 12 13 14 15 13 13 13 14 15 14 10 16
15 12 14 15 15 14 14 14 14 14 14 13 13 13 13 13 13 12 12 11 11 11 10 10 10 10 10 10 10 10 10 10 11 13 12 6 8 14 15 15 16 16 16
15 10 12 16 15 14 14 14 14 14 13 13 13 13 12 12 12 12 11 10 10 10 10 10 10 10 10 9 9 9 9 9 10 11 6 4 6 14 16 15 15 15 15
12 9 13 17 16 15 14 13 14 14 13 13 13 12 12 12 12 11 11 10 10 10 9 10 10 10 10 9 8 8 8 8 8 7 4 4 5 13 15 15 15 15 15
11 9 12 17 16 15 14 14 14 13 13 13 12 12 12 12 12 11 11 10 10 9 9 10 10 10 10 9 8 7 7 7 6 2 4 6 5 13 15 15 15 15 15
12 8 10 17 16 15 14 13 13 13 12 12 12 11 11 11 11 11 10 10 10 10 10 10 11 10 10 10 9 8 7 7 4 2 4 5 7 14 16 15 15 15 15
14 10 9 16 16 14 13 13 12 12 11 10 10 10 9 9 9 9 9 10 10 10 10 10 11 10 11 10 9 9 8 8 5 4 4 6 10 15 17 16 15 15 15
12 10 7 7 10 13 13 12 11 11 10 9 9 9 9 9 9 9 9 10 10 10 10 11 11 11 11 10 10 9 9 10 4 2 4 6 13 17 19 18 17 16 15
9 8 6 5 5 5 6 10 11 10 10 9 9 9 9 10 10 10 9 10 12 12 12 12 12 12 11 10 10 10 11 9 4 3 3 6 15 19 20 20 19 18 17
8 6 5 5 5 5 5 8 9 10 10 9 8 10 9 5 5 5 9 11 13 14 14 13 13 12 11 10 11 11 10 3 4 3 3 7 15 20 21 21 20 19 19
8 6 5 5 5 5 6 5 3 4 4 5 4 5 4 4 4 7 8 14 15 16 15 14 12 11 8 3 7 10 4 5 5 4 5 10 15 21 22 22 21 21 20
7 8 5 4 3 4 3 4 3 2 3 4 5 5 4 4 4 4 3 5 7 11 7 8 7 4 3 3 3 4 5 5 4 5 6 10 14 21 22 22 22 22 21
8 7 5 4 3 3 3 2 2 2 2 3 5 6 4 3 4 4 3 3 3 3 4 4 3 4 4 4 5 6 6 5 5 4 6 13 14 19 21 21 22 22 22
8 6 5 4 3 3 2 1 1 1 2 3 3 4 5 4 4 3 3 3 3 3 4 4 5 6 6 5 6 7 7 7 7 6 5 13 14 17 20 21 22 22 22
6 5 4 4 4 4 3 2 1 1 1 0 1 2 3 3 3 3 3 3 3 3 3 4 5 5 5 5 7 7 7 7 7 7 6 8 13 15 19 22 22 22 22
5 5 5 5 6 6 5 4 3 3 2 2 1 1 1 2 3 3 2 3 3 3 4 3 4 4 5 5 7 7 6 7 7 7 8 6 7 13 20 21 21 22 22
5 5 5 7 7 7 6 6 4 4 4 3 2 1 1 0 1 1 2 3 3 3 3 3 3 3 4 5 5 5 6 6 8 8 8 8 7 8 14 21 22 22 22
5 5 5 6 6 6 6 5 5 4 4 4 3 2 1 0 0 1 1 2 2 2 3 3 3 3 4 5 5 5 5 6 7 8 9 10 9 9 8 12 20 21 23
5 5 5 5 5 5 5 5 5 6 5 4 4 3 3 1 1 0 1 2 2 2 3 3 4 4 3 4 5 5 5 6 5 7 9 9 9 11 10 10 9 13 22
4 5 4 4 3 3 3 3 3 3 4 4 4 5 5 4 3 2 1 2 2 2 4 4 4 4 4 2 2 3 4 6 7 7 7 7 9 10 9 10 8 7 8
5 5 5 5 4 3 2 2 1 1 1 2 3 4 5 6 6 4 3 3 2 2 3 4 3 3 3 3 3 2 3 3 4 7 6 7 8 7 9 11 9 9 7
6 7 6 5 5 4 3 2 1 2 3 3 4 4 5 6 6 6 6 4 3 2 2 3 3 4 4 3 4 3 2 3 3 3 4 6 6 6 7 7 9 9 9
7 6 6 6 5 4 4 3 2 1 1 3 3 3 6 6 6 6 6 5 4 3 2 2 1 1 2 3 2 3 4 3 2 4 4 2 5 6 6 6 8 9 9
6 6 5 5 4 3 3 3 2 2 2 3 3 4 5 5 5 6 6 6 4 2 3 2 1 1 1 2 2 2 3 3 3 3 4 4 2 3 5 6 6 6 8
3 4 4 4 3 3 3 2 3 3 3 3 4 3 4 4 4 6 6 5 5 3 3 3 2 2 1 2 2 2 2 2 2 3 4 4 3 3 3 4 5 6 6
Wind_Direction
150 157 149 142 137 134 132 129 125 120 116 114 113 112 112 113 114 117 120 124 127 131 133 133 131 125 118 114 115 119 121 122 123 123 122 118 117 120 120 117 115 115 118
149 152 146 141 138 136 134 133 131 127 124 121 119 117 117 118 119 121 124 128 131 134 136 136 135 132 126 124 124 126 129 130 129 128 124 119 120 128 126 121 121 125 124
142 144 142 138 135 134 134 135 135 133 131 129 128 127 127 128 129 131 134 137 140 141 142 144 144 142 140 138 136 136 137 137 135 130 122 113 115 125 130 127 127 126 125
138 135 138 135 133 133 134 136 138 138 138 138 139 139 140 141 142 144 146 149 151 151 154 156 155 154 152 151 150 149 149 151 150 140 129 141 128 128 132 133 132 131 129
131 130 139 136 134 134 135 136 139 141 144 146 149 151 152 154 156 157 159 162 163 163 165 166 165 164 164 165 167 167 166 167 169 159 161 164 138 141 141 141 140 138 137
129 130 141 137 136 136 137 139 141 145 149 153 158 161 163 166 168 169 171 175 177 179 179 178 176 174 174 178 183 186 188 189 188 171 156 159 156 154 151 150 149 146 145
132 136 142 141 142 143 143 143 146 150 154 159 164 169 173 176 180 181 184 188 192 194 193 190 186 185 185 188 194 201 207 213 203 180 164 172 175 164 159 158 157 155 153
139 141 144 148 148 149 149 149 151 155 160 165 172 178 184 188 193 196 201 204 207 208 202 196 193 192 193 196 202 211 220 230 224 197 187 189 188 173 167 164 163 163 162
139 141 142 149 153 156 156 157 159 163 168 175 182 189 196 203 208 213 217 220 219 218 212 206 202 203 203 204 210 218 229 238 242 219 221 195 195 182 174 170 169 170 169
132 140 141 140 142 149 160 168 170 175 180 187 195 201 208 215 220 224 223 228 228 224 220 216 213 212 213 214 219 226 235 246 246 232 235 209 200 189 182 178 175 174 175
133 141 143 149 155 160 169 182 182 188 194 198 205 213 216 220 229 237 237 235 236 233 228 223 221 221 222 226 231 235 241 238 248 239 226 223 206 198 189 185 182 181 180
130 148 161 162 172 177 186 178 191 201 201 204 203 216 215 210 221 234 237 242 241 240 236 232 232 231 232 231 241 244 241 236 243 245 232 232 214 205 196 190 188 186 186
117 126 133 139 149 162 168 165 194 210 210 217 217 216 220 219 225 235 231 251 247 242 234 229 231 226 222 215 225 237 239 240 240 246 245 246 221 209 202 195 193 190 191
99 105 109 100 96 104 121 154 187 205 216 218 223 219 211 217 221 222 226 232 232 223 212 212 205 207 220 229 234 242 244 241 242 241 247 253 232 213 206 201 199 196 194
87 86 85 89 87 87 93 110 133 231 229 221 220 217 207 213 226 230 233 231 226 218 208 208 207 206 208 220 230 237 244 247 248 244 250 253 240 220 212 207 206 203 200
86 88 82 67 62 66 63 53 39 4 338 283 221 223 206 207 220 225 232 240 241 230 218 210 208 208 210 215 230 232 242 249 248 245 248 257 249 232 221 216 211 209 207
85 80 87 73 51 46 38 32 30 18 22 16 333 279 213 206 220 223 233 243 246 239 229 218 217 211 215 220 229 231 237 240 243 242 245 245 246 240 230 223 218 214 212
96 80 66 68 58 49 39 31 24 18 19 3 347 342 342 241 219 221 241 252 252 243 225 218 215 215 221 223 228 230 232 233 237 239 237 238 235 239 237 231 223 218 215
120 107 83 68 63 55 44 35 25 17 11 352 342 336 335 13 137 184 247 262 265 253 239 235 221 212 220 225 232 235 234 234 234 237 232 231 228 229 229 232 229 226 223
134 122 106 86 77 67 48 34 22 12 359 350 343 326 317 307 336 346 265 280 277 261 255 243 236 225 223 223 242 248 240 238 234 232 230 227 223 223 223 225 227 232 230
144 136 135 119 102 84 63 50 31 355 342 344 348 343 338 327 326 321 292 295 282 258 256 248 235 234 235 209 230 273 265 243 234 233 226 220 222 221 218 218 216 219 228
175 168 159 150 136 123 121 131 158 246 304 319 335 347 347 338 324 318 293 276 268 272 286 271 236 231 236 198 191 226 289 296 255 233 221 218 218 212 218 219 213 212 216
184 181 172 165 152 145 138 110 46 16 354 347 338 334 330 326 319 314 300 278 258 236 262 277 254 229 241 234 201 188 209 253 296 288 236 222 211 206 213 212 209 211 211
193 180 168 164 159 160 147 139 154 171 254 267 279 301 316 324 325 323 317 298 263 234 238 264 281 236 231 250 244 224 217 208 235 302 314 263 219 211 210 212 211 209 206
176 165 163 161 169 180 173 169 171 206 237 269 298 320 323 324 332 338 333 329 305 268 247 248 276 296 236 246 242 241 246 237 219 219 284 309 297 239 212 208 206 205 205
149 146 154 162 189 207 200 196 193 222 253 288 311 320 319 318 324 333 338 341 335 318 287 273 266 271 265 275 271 240 221 230 233 215 238 263 272 266 229 209 204 206 201